[[{"header":{"parameterUnit":"m.s-1","parameterCategory":1,"la1":30.2991,"la2":30.254,"lo1":-89.0895,"lo2":-89.0444,"dy":0.0017,"dx":0.0017,"nx":28,"ny":28,"refTime":"2024-09-26T09:00:00:Z","depth":0,"parameterNumber":2,"parameterNumberName":"U-component_of_WINDS"},"data":[0,0,0,0,0,0,0,0,0,0,0,0,0,0,0,0,0,0,0,0,0,0,0,0,0,0,0,0,0,0,0,0,0,0,0,0,0,0,0,0,0,0,0,0,0,0,0,0,0,0,0,0,0,0,0,0,0,0,5.8327,5.8329,0,5.8534,5.8536,5.8539,5.8474,5.847,5.8465,5.8461,5.8676,5.8685,5.8695,0,0,0,0,0,0,0,0,0,0,0,0,0,5.7872,5.7881,5.8326,5.8329,5.8332,5.8534,5.8536,5.8539,5.8475,5.8469,5.8464,5.8459,5.8672,5.8684,5.8696,0,0,0,0,0,0,0,0,0,0,0,0,0,5.8074,5.7884,5.8326,5.8324,5.8325,5.8533,5.8537,5.854,5.8476,5.8469,5.8463,5.8456,5.8669,5.8683,5.8697,5.892,0,0,5.8742,5.8749,0,0,0,0,0,0,0,0,5.8062,5.8091,5.8321,5.8324,5.8327,5.8471,5.8455,5.8668,5.8477,5.8419,5.8461,5.8453,5.8613,5.8632,5.8685,5.893,5.894,5.8744,5.8753,5.8759,5.8763,0,0,0,0,0,0,0,5.8049,5.8081,5.8408,5.8325,5.8328,5.8312,5.8333,5.8495,5.8551,5.8423,5.8419,5.8445,5.8613,5.8671,5.869,5.8943,5.8743,5.8756,5.8765,5.8771,5.9374,5.9381,0,0,0,0,0,0,5.8033,5.807,5.8402,5.8415,5.8175,5.8325,5.8349,5.8432,5.8549,5.856,5.845,5.8441,5.8649,5.8673,5.8697,5.8961,5.8759,5.8773,5.8781,5.9367,5.9376,5.9383,0,0,0,0,0,0,5.8023,5.8063,5.8394,5.8241,5.8282,5.834,5.8433,5.8439,5.8497,5.8569,5.8578,5.8499,5.8645,5.8677,5.8864,5.8968,5.8779,5.8793,5.9358,5.937,5.938,5.9493,0,0,0,0,0,0,5.8011,5.806,5.8146,5.8244,5.829,5.8557,5.844,5.8448,5.8522,5.8512,5.8617,5.8628,5.8642,5.8842,5.8878,5.8985,5.8804,5.9349,5.9363,5.9376,5.9481,5.9507,5.9529,0,0,0,0,0,5.7995,5.8172,5.8151,5.8191,5.8399,5.8564,5.859,5.8602,5.8531,5.8617,5.8662,5.8625,5.8951,5.8862,5.8902,5.9014,5.9343,5.9359,5.9375,5.947,5.9502,5.9529,0,0,0,0,0,0,5.8087,5.8185,5.8163,5.8377,5.8462,5.8552,5.8662,5.8637,5.8745,5.8731,5.8742,5.8766,5.8956,5.9005,5.8904,5.9233,5.9136,5.9161,5.9194,5.9225,5.9249,5.9232,5.8816,0,0,0,0,0,5.8132,5.8258,5.8336,5.8518,5.8561,5.8604,5.8676,5.8678,5.8767,5.8803,5.8862,5.895,5.9071,5.9151,5.9268,5.9488,5.9507,5.9584,5.9609,5.9628,5.9649,5.9763,5.9797,5.9437,5.9436,5.9436,0,0,5.8227,5.8296,5.8375,5.8538,5.8604,5.8732,5.8635,5.8776,5.887,5.8825,5.9003,5.9049,5.9148,5.9351,5.9443,5.9397,5.9753,5.9649,5.9664,5.9674,5.9783,5.9817,5.9847,5.9448,5.9445,5.9444,0,0,5.8465,5.8531,5.8686,5.8754,5.8854,5.8881,5.8918,5.9012,5.9039,5.9219,5.9185,5.9297,5.9508,5.9578,5.9641,5.9899,5.9867,5.9937,6.0063,6.0174,6.0203,6.0228,6.0315,6.0347,5.9958,5.9959,5.9959,0,5.857,5.8762,5.877,5.8912,5.8982,5.8945,5.91,5.9166,5.93,5.9349,5.9295,5.9554,5.9619,5.9834,5.9896,5.9951,5.9991,5.9924,6.0198,6.0223,6.0247,6.033,6.0363,5.9966,5.9965,5.9964,5.9964,0,5.8883,5.9017,5.913,5.9257,5.9341,5.949,5.9518,5.9602,5.9595,5.9627,5.9807,5.9882,6.001,6.0062,6.0059,6.0276,6.0243,6.0194,6.0097,6.0288,6.0366,6.0399,5.9977,5.9974,5.9972,5.997,0,0,5.9186,5.9312,5.9354,5.9408,5.9514,5.9617,5.9762,5.9885,5.9955,6.0048,6.0167,6.0344,6.0297,6.0369,6.0372,6.047,6.0663,6.0408,6.041,6.0448,6.0901,6.0935,6.0972,6.0643,6.065,6.0655,6.0891,0,5.9429,5.9683,5.9692,5.9923,6.0043,6.0007,6.0133,6.0211,6.0243,6.0349,6.0386,6.0509,6.044,6.0482,6.0577,6.0619,6.0753,6.0603,6.0752,6.0757,6.0724,6.1014,6.1052,6.1271,6.0923,6.0928,6.0932,0,5.9746,5.9845,6.0088,6.0171,6.0222,6.0335,6.0445,6.0548,6.0634,6.0651,6.0728,6.0716,6.0862,6.0761,6.096,6.0857,6.0918,6.0948,6.0956,6.0968,6.0854,6.1029,6.1343,6.1374,6.0981,6.0977,6.0973,0,5.9936,6.0131,6.0299,6.0348,6.0451,6.053,6.0577,6.0656,6.0728,6.0825,6.0871,6.0985,6.1046,6.1134,6.1151,6.1077,6.1349,6.1251,6.1364,6.1363,6.1421,6.1416,6.1744,6.1467,6.1467,6.1466,6.1466,0,6.0204,6.0353,6.0385,6.0489,6.0653,6.0662,6.0823,6.0864,6.0934,6.1043,6.1021,6.1123,6.1142,6.1248,6.1264,6.1423,6.1452,6.1467,6.1469,6.1468,6.1465,6.1506,6.1489,6.1475,6.1473,6.1471,6.147,0,6.0444,6.0473,6.0653,6.0734,6.0757,6.0874,6.0943,6.1041,6.1069,6.1207,6.124,6.1285,6.1409,6.1435,6.1583,6.1592,6.178,6.1769,6.175,6.1748,6.1858,6.1845,6.222,6.2267,6.1964,6.1967,6.1969,0,6.0611,6.0724,6.0816,6.0886,6.0935,6.1051,6.1122,6.1134,6.121,6.1313,6.1397,6.1518,6.1614,6.1813,6.1858,6.1969,6.1958,6.2081,6.1975,6.1967,6.1954,6.1945,6.1954,6.2101,6.2104,6.2107,6.2109,0,6.0904,6.091,6.1015,6.1122,6.1208,6.1294,6.1376,6.1435,6.1458,6.1543,6.1668,6.1742,6.189,6.2008,6.2119,6.2166,6.214,6.2142,6.2174,6.2171,6.2154,6.216,6.1801,6.2133,6.2131,6.2129,6.2128,6.2127,6.1109,6.1205,6.1283,6.1398,6.146,6.1536,6.1629,6.1668,6.1772,6.1892,6.1893,6.2028,6.2106,6.2251,6.2304,6.2409,6.237,6.2417,6.2428,6.2438,6.2445,6.214,6.243,6.2429,6.2428,6.2428,6.2427,0,6.1396,6.1443,6.1549,6.1662,6.1751,6.1719,6.1806,6.1883,6.2001,6.2076,6.217,6.231,6.2424,6.2477,6.2588,6.2661,6.2652,6.2689,6.2682,6.2692,6.2476,6.2436,6.2695,6.2695,6.2694,6.2694,6.2694,6.2694,6.1555,6.1714,6.173,6.1918,6.1964,6.2094,6.2146,6.2214,6.2273,6.243,6.2524,6.2557,6.2622,6.2736,6.2838,6.285,6.289,6.2933,6.2939,6.2736,6.2708,6.2682,6.2644,6.2943,6.2943,6.3146,6.3148,6.3149]},{"header":{"parameterUnit":"m.s-1","parameterCategory":1,"la1":30.2991,"la2":30.254,"lo1":-89.0895,"lo2":-89.0444,"dy":0.0017,"dx":0.0017,"nx":28,"ny":28,"refTime":"2024-09-26T09:00:00:Z","depth":0,"parameterNumber":3,"parameterNumberName":"V-component_of_WINDS"},"data":[0,0,0,0,0,0,0,0,0,0,0,0,0,0,0,0,0,0,0,0,0,0,0,0,0,0,0,0,0,0,0,0,0,0,0,0,0,0,0,0,0,0,0,0,0,0,0,0,0,0,0,0,0,0,0,0,0,0,2.6959,2.6959,0,2.697,2.697,2.697,2.6944,2.6943,2.6942,2.6941,2.6952,2.6953,2.6954,0,0,0,0,0,0,0,0,0,0,0,0,0,2.6914,2.6915,2.6959,2.6959,2.6959,2.697,2.697,2.697,2.6944,2.6943,2.6942,2.6941,2.6952,2.6953,2.6954,0,0,0,0,0,0,0,0,0,0,0,0,0,2.693,2.6915,2.6959,2.6947,2.6946,2.697,2.697,2.697,2.6944,2.6943,2.6942,2.694,2.6951,2.6953,2.6955,2.699,0,0,2.696,2.696,0,0,0,0,0,0,0,0,2.6929,2.6932,2.6949,2.6948,2.6947,2.6954,2.6958,2.6977,2.6944,2.6945,2.6941,2.694,2.6954,2.6955,2.696,2.699,2.6991,2.696,2.6961,2.6961,2.6962,0,0,0,0,0,0,0,2.6928,2.6931,2.6963,2.6949,2.6948,2.6941,2.6942,2.6961,2.6956,2.6945,2.6943,2.6945,2.6953,2.6959,2.696,2.6991,2.696,2.6961,2.6962,2.6963,2.7047,2.7049,0,0,0,0,0,0,2.6929,2.693,2.6963,2.6964,2.6935,2.6943,2.6944,2.6953,2.6956,2.6955,2.6946,2.6943,2.6956,2.6958,2.696,2.7,2.6961,2.6963,2.6964,2.7046,2.7048,2.7049,0,0,0,0,0,0,2.6928,2.6932,2.6962,2.6946,2.695,2.6945,2.6956,2.6954,2.6959,2.6957,2.6955,2.6952,2.6955,2.6958,2.6982,2.7,2.6964,2.6965,2.7045,2.7047,2.7048,2.708,0,0,0,0,0,0,2.6926,2.6932,2.6945,2.6947,2.6951,2.6985,2.6957,2.6955,2.6962,2.6959,2.6962,2.6962,2.6955,2.698,2.6984,2.7001,2.6966,2.7043,2.7045,2.7048,2.7077,2.7083,2.7087,0,0,0,0,0,2.6925,2.6954,2.6946,2.695,2.6968,2.6986,2.6988,2.6979,2.6964,2.6977,2.6975,2.6962,2.6997,2.6982,2.6986,2.7005,2.7042,2.7045,2.7048,2.7075,2.7082,2.7087,0,0,0,0,0,0,2.6956,2.6954,2.6945,2.6976,2.6981,2.6981,2.6998,2.6987,2.6996,2.6993,2.6982,2.6983,2.7008,2.7009,2.6992,2.7038,2.7017,2.7021,2.7036,2.7043,2.7047,2.7046,2.6968,0,0,0,0,0,2.6966,2.6981,2.6979,2.7006,2.7009,2.7003,2.7011,2.7003,2.7008,2.701,2.7009,2.7014,2.7026,2.7035,2.7046,2.7077,2.7077,2.7092,2.7097,2.7101,2.7104,2.7119,2.7125,2.7059,2.7058,2.7058,0,0,2.6988,2.6989,2.6999,2.7012,2.7015,2.703,2.7005,2.7022,2.7033,2.7012,2.7034,2.7034,2.7039,2.7066,2.7078,2.7067,2.7122,2.7105,2.7108,2.7109,2.7123,2.7129,2.7134,2.706,2.706,2.706,0,0,2.7034,2.7037,2.7059,2.7062,2.7067,2.7062,2.7067,2.7069,2.7067,2.7089,2.7074,2.7086,2.7107,2.711,2.7115,2.716,2.7147,2.7164,2.719,2.7205,2.721,2.7214,2.7229,2.7235,2.7167,2.7167,2.7168,0,2.7061,2.7082,2.7072,2.709,2.7095,2.7077,2.7098,2.7102,2.711,2.7113,2.7101,2.7126,2.7128,2.7155,2.7166,2.7171,2.7175,2.7164,2.721,2.7214,2.7219,2.7232,2.7238,2.7169,2.7169,2.7169,2.7169,0,2.7113,2.7129,2.7146,2.7153,2.716,2.718,2.7172,2.7181,2.7172,2.7168,2.719,2.7191,2.7201,2.7207,2.72,2.7232,2.7225,2.7212,2.7191,2.7227,2.7239,2.7245,2.7172,2.7171,2.7171,2.717,0,0,2.7181,2.718,2.7187,2.7189,2.7191,2.7202,2.722,2.723,2.7237,2.7242,2.7256,2.7274,2.726,2.7266,2.7258,2.7271,2.7304,2.7255,2.7255,2.7263,2.7338,2.7347,2.7354,2.7296,2.7297,2.7298,2.7337,0,2.7226,2.7256,2.7246,2.7277,2.729,2.7271,2.7286,2.7289,2.7286,2.7296,2.7292,2.7304,2.7287,2.7289,2.7301,2.7298,2.7319,2.7295,2.7308,2.7308,2.7306,2.7361,2.7371,2.7408,2.7342,2.7343,2.7344,0,2.7282,2.7289,2.732,2.7318,2.7323,2.7337,2.7344,2.7354,2.7356,2.7352,2.7357,2.7346,2.7362,2.7341,2.7363,2.7346,2.7351,2.735,2.7351,2.7351,2.7328,2.7361,2.742,2.7425,2.7352,2.7351,2.7351,0,2.7326,2.7343,2.7363,2.7366,2.7365,2.7374,2.7374,2.7375,2.7381,2.7386,2.7389,2.7397,2.7401,2.7407,2.7398,2.7384,2.742,2.7399,2.7417,2.7417,2.7425,2.7424,2.7484,2.743,2.743,2.7429,2.7429,0,2.7376,2.7396,2.7383,2.7395,2.7416,2.7404,2.7425,2.7423,2.7423,2.7434,2.7419,2.743,2.7418,2.7427,2.742,2.7438,2.744,2.7437,2.7435,2.7438,2.7438,2.744,2.7437,2.7431,2.7431,2.743,2.743,0,2.7429,2.7421,2.7442,2.7438,2.7438,2.7453,2.745,2.7461,2.7455,2.747,2.7472,2.7464,2.7474,2.7466,2.7476,2.7471,2.7494,2.7489,2.7493,2.7491,2.7509,2.7507,2.7572,2.7579,2.7521,2.7522,2.7522,0,2.7461,2.7476,2.7473,2.7479,2.748,2.749,2.7495,2.7483,2.7489,2.7491,2.7501,2.751,2.7516,2.7532,2.7527,2.7534,2.7528,2.755,2.7529,2.7531,2.7526,2.7525,2.7526,2.7554,2.7555,2.7556,2.7556,0,2.7519,2.7513,2.7521,2.7527,2.7533,2.7537,2.754,2.7546,2.7534,2.7541,2.755,2.7555,2.7564,2.7572,2.7577,2.7576,2.7564,2.7563,2.7567,2.757,2.7571,2.7569,2.7504,2.7561,2.7561,2.756,2.756,2.756,2.7561,2.7572,2.7571,2.758,2.758,2.7583,2.7592,2.7588,2.7595,2.7602,2.7594,2.7605,2.7605,2.761,2.7611,2.7619,2.761,2.7616,2.7618,2.7619,2.7621,2.7571,2.762,2.762,2.762,2.762,2.762,0,2.7616,2.7614,2.7622,2.7626,2.7632,2.7619,2.7622,2.7628,2.7637,2.7638,2.7644,2.7654,2.7661,2.7656,2.7662,2.7669,2.7663,2.7671,2.767,2.7669,2.763,2.7625,2.7675,2.7675,2.7675,2.7675,2.7675,2.7675,2.7646,2.7663,2.7657,2.7674,2.7672,2.7682,2.7684,2.7686,2.7686,2.7698,2.7704,2.77,2.7698,2.7703,2.7709,2.7707,2.7709,2.7719,2.7715,2.7678,2.7672,2.7667,2.7662,2.772,2.772,2.7753,2.7754,2.7754]}]]